Time,TemperatureF,DewpointF,PressureIn,WindDirection,WindDirectionDegrees,WindSpeedMPH,WindSpeedGustMPH,Humidity,HourlyPrecipIn,Conditions,Clouds,dailyrainin,SoftwareType,DateUTC
2013-02-08 00:01:00,30.6,24.3,30.26,NNE,17,0.0,0.0,77,0.00,,SKC,0.00,VWS V13.01,2013-02-08 06:01:00,
2013-02-08 00:06:00,30.7,24.4,30.27,NNE,17,0.0,0.0,77,0.00,,SKC,0.00,VWS V13.01,2013-02-08 06:06:00,
2013-02-08 00:12:00,30.6,24.3,30.27,NNE,17,0.0,0.0,77,0.00,,SKC,0.00,VWS V13.01,2013-02-08 06:12:00,
2013-02-08 00:17:00,30.5,24.2,30.27,NNE,17,0.0,0.0,77,0.00,,SKC,0.00,VWS V13.01,2013-02-08 06:17:00,
2013-02-08 00:22:00,30.5,24.5,30.27,NNE,17,0.0,0.0,78,0.00,,SKC,0.00,VWS V13.01,2013-02-08 06:22:00,
2013-02-08 00:28:00,30.5,24.2,30.27,NNE,17,0.0,0.0,77,0.00,,SKC,0.00,VWS V13.01,2013-02-08 06:28:00,
2013-02-08 00:34:00,30.5,24.5,30.27,NNE,17,0.0,0.0,78,0.00,,SKC,0.00,VWS V13.01,2013-02-08 06:34:00,
2013-02-08 00:39:00,30.5,24.5,30.28,NNE,17,0.0,0.0,78,0.00,,SKC,0.00,VWS V13.01,2013-02-08 06:39:00,
2013-02-08 00:44:00,30.5,24.5,30.28,NNE,17,0.0,0.0,78,0.00,,SKC,0.00,VWS V13.01,2013-02-08 06:44:00,
2013-02-08 00:49:00,30.5,24.5,30.29,NNE,17,0.0,0.0,78,0.00,,SKC,0.00,VWS V13.01,2013-02-08 06:49:00,
2013-02-08 00:54:00,30.4,24.4,30.28,NNE,17,0.0,0.0,78,0.00,,SKC,0.00,VWS V13.01,2013-02-08 06:54:00,
2013-02-08 00:59:00,30.4,24.4,30.28,NNE,17,0.0,0.0,78,0.00,,SKC,0.00,VWS V13.01,2013-02-08 06:59:00,
2013-02-08 01:04:00,30.5,24.5,30.28,North,8,0.0,0.0,78,0.00,,SKC,0.00,VWS V13.01,2013-02-08 07:04:00,
2013-02-08 01:09:00,30.4,24.4,30.28,North,352,0.0,0.0,78,0.00,,SKC,0.00,VWS V13.01,2013-02-08 07:09:00,
2013-02-08 01:14:00,30.4,24.4,30.28,North,8,1.0,3.0,78,0.00,,SKC,0.00,VWS V13.01,2013-02-08 07:14:00,
2013-02-08 01:19:00,30.4,24.4,30.28,NNE,20,0.0,2.0,78,0.00,,SKC,0.00,VWS V13.01,2013-02-08 07:19:00,
2013-02-08 01:24:00,30.3,24.3,30.28,NNE,27,0.0,1.0,78,0.00,,SKC,0.00,VWS V13.01,2013-02-08 07:24:00,
2013-02-08 01:29:00,30.3,24.3,30.28,NNE,27,0.0,0.0,78,0.00,,SKC,0.00,VWS V13.01,2013-02-08 07:29:00,
2013-02-08 01:34:00,30.2,24.2,30.29,NNE,27,0.0,0.0,78,0.00,,SKC,0.00,VWS V13.01,2013-02-08 07:34:00,
2013-02-08 01:39:00,30.2,24.2,30.29,NE,42,7.0,7.0,78,0.00,,SKC,0.00,VWS V13.01,2013-02-08 07:39:00,
2013-02-08 01:44:00,30.2,24.2,30.29,North,8,0.0,2.0,78,0.00,,SKC,0.00,VWS V13.01,2013-02-08 07:44:00,
2013-02-08 01:49:00,30.1,24.1,30.29,NNW,343,0.0,1.0,78,0.00,,SKC,0.00,VWS V13.01,2013-02-08 07:49:00,
2013-02-08 01:54:00,30.1,24.1,30.28,NNE,15,0.0,0.0,78,0.00,,SKC,0.00,VWS V13.01,2013-02-08 07:54:00,
2013-02-08 01:59:00,30.1,24.4,30.28,NNE,14,0.0,0.0,79,0.00,,SKC,0.00,VWS V13.01,2013-02-08 07:59:00,
2013-02-08 02:04:00,30.0,24.3,30.28,NNE,14,0.0,0.0,79,0.00,,SKC,0.00,VWS V13.01,2013-02-08 08:04:00,
2013-02-08 02:09:00,30.0,24.3,30.28,NNE,14,0.0,0.0,79,0.00,,SKC,0.00,VWS V13.01,2013-02-08 08:09:00,
2013-02-08 02:14:00,30.0,24.3,30.28,NNE,29,0.0,2.0,79,0.00,,SKC,0.00,VWS V13.01,2013-02-08 08:14:00,
2013-02-08 02:19:00,30.0,24.6,30.29,NE,40,0.0,2.0,80,0.00,,SKC,0.00,VWS V13.01,2013-02-08 08:19:00,
2013-02-08 02:24:00,29.9,24.5,30.29,NE,45,0.0,0.0,80,0.00,,SKC,0.00,VWS V13.01,2013-02-08 08:24:00,
2013-02-08 02:29:00,29.8,24.7,30.29,NE,49,0.0,0.0,81,0.00,,SKC,0.00,VWS V13.01,2013-02-08 08:29:00,
2013-02-08 02:34:00,29.7,24.6,30.30,NE,47,0.0,1.0,81,0.00,,SKC,0.00,VWS V13.01,2013-02-08 08:34:00,
2013-02-08 02:39:00,29.6,24.8,30.30,NE,47,0.0,1.0,82,0.00,,SKC,0.00,VWS V13.01,2013-02-08 08:39:00,
2013-02-08 02:44:00,29.4,24.6,30.30,NE,44,0.0,3.0,82,0.00,,SKC,0.00,VWS V13.01,2013-02-08 08:44:00,
2013-02-08 02:49:00,29.2,24.4,30.30,NE,43,0.0,2.0,82,0.00,,SKC,0.00,VWS V13.01,2013-02-08 08:49:00,
2013-02-08 02:54:00,29.1,24.3,30.30,NE,43,0.0,2.0,82,0.00,,SKC,0.00,VWS V13.01,2013-02-08 08:54:00,
2013-02-08 02:59:00,29.0,24.2,30.30,NE,38,0.0,3.0,82,0.00,,SKC,0.00,VWS V13.01,2013-02-08 08:59:00,
2013-02-08 03:04:00,28.9,24.4,30.30,NE,38,0.0,0.0,83,0.00,,SKC,0.00,VWS V13.01,2013-02-08 09:04:00,
2013-02-08 03:09:00,28.8,24.3,30.31,NE,38,0.0,1.0,83,0.00,,SKC,0.00,VWS V13.01,2013-02-08 09:09:00,
2013-02-08 03:14:00,28.7,24.2,30.30,NE,37,0.0,3.0,83,0.00,,SKC,0.00,VWS V13.01,2013-02-08 09:14:00,
2013-02-08 03:19:00,28.6,24.1,30.31,NE,38,0.0,0.0,83,0.00,,SKC,0.00,VWS V13.01,2013-02-08 09:19:00,
2013-02-08 03:24:00,28.5,24.0,30.30,NE,38,0.0,0.0,83,0.00,,SKC,0.00,VWS V13.01,2013-02-08 09:24:00,
2013-02-08 03:29:00,28.5,24.0,30.30,NE,37,0.0,0.0,83,0.00,,SKC,0.00,VWS V13.01,2013-02-08 09:29:00,
2013-02-08 03:34:00,28.4,23.9,30.31,NE,34,0.0,2.0,83,0.00,,SKC,0.00,VWS V13.01,2013-02-08 09:34:00,
2013-02-08 03:39:00,28.4,23.9,30.30,NE,34,0.0,0.0,83,0.00,,SKC,0.00,VWS V13.01,2013-02-08 09:39:00,
2013-02-08 03:44:00,28.3,23.8,30.31,NE,34,0.0,1.0,83,0.00,,SKC,0.00,VWS V13.01,2013-02-08 09:44:00,
2013-02-08 03:49:00,28.2,24.0,30.31,NE,34,0.0,0.0,84,0.00,,SKC,0.00,VWS V13.01,2013-02-08 09:49:00,
2013-02-08 03:54:00,28.2,24.0,30.30,NE,34,0.0,0.0,84,0.00,,SKC,0.00,VWS V13.01,2013-02-08 09:54:00,
2013-02-08 03:59:00,28.2,24.0,30.31,NNE,33,0.0,1.0,84,0.00,,SKC,0.00,VWS V13.01,2013-02-08 09:59:00,
2013-02-08 04:04:00,28.1,23.9,30.30,NNE,32,2.0,3.0,84,0.00,,SKC,0.00,VWS V13.01,2013-02-08 10:04:00,
2013-02-08 04:09:00,28.0,23.8,30.30,NNE,33,0.0,0.0,84,0.00,,SKC,0.00,VWS V13.01,2013-02-08 10:09:00,
2013-02-08 04:14:00,28.0,23.8,30.30,NNE,33,1.0,2.0,84,0.00,,SKC,0.00,VWS V13.01,2013-02-08 10:14:00,
2013-02-08 04:19:00,27.9,23.7,30.31,NNE,33,0.0,0.0,84,0.00,,SKC,0.00,VWS V13.01,2013-02-08 10:19:00,
2013-02-08 04:24:00,27.9,23.7,30.31,NE,39,0.0,2.0,84,0.00,,SKC,0.00,VWS V13.01,2013-02-08 10:24:00,
2013-02-08 04:29:00,27.8,23.6,30.31,NE,39,0.0,0.0,84,0.00,,SKC,0.00,VWS V13.01,2013-02-08 10:29:00,
2013-02-08 04:34:00,27.8,23.6,30.31,NE,39,0.0,0.0,84,0.00,,SKC,0.00,VWS V13.01,2013-02-08 10:34:00,
2013-02-08 04:39:00,27.7,23.5,30.31,NE,39,0.0,0.0,84,0.00,,SKC,0.00,VWS V13.01,2013-02-08 10:39:00,
2013-02-08 04:44:00,27.6,23.7,30.31,NE,49,1.0,3.0,85,0.00,,SKC,0.00,VWS V13.01,2013-02-08 10:44:00,
2013-02-08 04:49:00,27.6,23.7,30.31,NE,48,2.0,3.0,85,0.00,,SKC,0.00,VWS V13.01,2013-02-08 10:49:00,
2013-02-08 04:54:00,27.5,23.6,30.31,NE,49,0.0,0.0,85,0.00,,SKC,0.00,VWS V13.01,2013-02-08 10:54:00,
2013-02-08 04:59:00,27.4,23.5,30.31,NE,47,1.0,2.0,85,0.00,,SKC,0.00,VWS V13.01,2013-02-08 10:59:00,
2013-02-08 05:04:00,27.3,23.4,30.31,NE,45,0.0,1.0,85,0.00,,SKC,0.00,VWS V13.01,2013-02-08 11:04:00,
2013-02-08 05:09:00,27.3,23.4,30.31,NE,45,0.0,0.0,85,0.00,,SKC,0.00,VWS V13.01,2013-02-08 11:09:00,
2013-02-08 05:14:00,27.3,23.4,30.31,NE,45,0.0,0.0,85,0.00,,SKC,0.00,VWS V13.01,2013-02-08 11:14:00,
2013-02-08 05:19:00,27.3,23.4,30.31,NE,45,0.0,0.0,85,0.00,,SKC,0.00,VWS V13.01,2013-02-08 11:19:00,
2013-02-08 05:24:00,27.3,23.7,30.31,NE,45,0.0,3.0,86,0.00,,SKC,0.00,VWS V13.01,2013-02-08 11:24:00,
2013-02-08 05:29:00,27.3,23.7,30.31,NE,44,2.0,3.0,86,0.00,,SKC,0.00,VWS V13.01,2013-02-08 11:29:00,
2013-02-08 05:34:00,27.3,23.7,30.30,NE,35,0.0,0.0,86,0.00,,SKC,0.00,VWS V13.01,2013-02-08 11:34:00,
2013-02-08 05:39:00,27.2,23.6,30.31,NNE,32,0.0,4.0,86,0.00,,SKC,0.00,VWS V13.01,2013-02-08 11:39:00,
2013-02-08 05:44:00,27.2,23.6,30.31,NNE,32,2.0,3.0,86,0.00,,SKC,0.00,VWS V13.01,2013-02-08 11:44:00,
2013-02-08 05:50:00,27.1,23.5,30.32,NNE,32,0.0,0.0,86,0.00,,SKC,0.00,VWS V13.01,2013-02-08 11:50:00,
2013-02-08 05:55:00,27.1,23.5,30.32,NNE,32,0.0,0.0,86,0.00,,SKC,0.00,VWS V13.01,2013-02-08 11:55:00,
2013-02-08 06:00:00,27.2,23.6,30.32,NNE,32,0.0,0.0,86,0.00,,SKC,0.00,VWS V13.01,2013-02-08 12:00:00,
2013-02-08 06:05:00,27.1,23.5,30.32,NE,38,0.0,0.0,86,0.00,,SKC,0.00,VWS V13.01,2013-02-08 12:05:00,
2013-02-08 06:10:00,27.2,23.6,30.32,NE,45,3.0,4.0,86,0.00,,SKC,0.00,VWS V13.01,2013-02-08 12:10:00,
2013-02-08 06:15:00,27.2,23.6,30.32,NE,43,3.0,4.0,86,0.00,,SKC,0.00,VWS V13.01,2013-02-08 12:15:00,
2013-02-08 06:20:00,27.1,23.5,30.32,NE,44,0.0,2.0,86,0.00,,SKC,0.00,VWS V13.01,2013-02-08 12:20:00,
2013-02-08 06:25:00,27.0,23.4,30.32,NE,44,0.0,0.0,86,0.00,,SKC,0.00,VWS V13.01,2013-02-08 12:25:00,
2013-02-08 06:30:00,27.0,23.4,30.33,NE,44,0.0,0.0,86,0.00,,SKC,0.00,VWS V13.01,2013-02-08 12:30:00,
2013-02-08 06:35:00,26.9,23.3,30.33,NE,43,0.0,0.0,86,0.00,,SKC,0.00,VWS V13.01,2013-02-08 12:35:00,
2013-02-08 06:41:00,26.8,23.2,30.33,NE,43,0.0,0.0,86,0.00,,SKC,0.00,VWS V13.01,2013-02-08 12:41:00,
2013-02-08 06:46:00,26.8,23.2,30.33,NE,43,0.0,0.0,86,0.00,,SKC,0.00,VWS V13.01,2013-02-08 12:46:00,
2013-02-08 06:51:00,26.8,23.2,30.33,NE,43,0.0,0.0,86,0.00,,SKC,0.00,VWS V13.01,2013-02-08 12:51:00,
2013-02-08 06:56:00,26.8,23.2,30.33,NE,43,0.0,0.0,86,0.00,,SKC,0.00,VWS V13.01,2013-02-08 12:56:00,
2013-02-08 07:01:00,26.8,23.2,30.33,NE,45,0.0,0.0,86,0.00,,SKC,0.00,VWS V13.01,2013-02-08 13:01:00,
2013-02-08 07:06:00,26.7,23.1,30.33,NE,52,1.0,2.0,86,0.00,,SKC,0.00,VWS V13.01,2013-02-08 13:06:00,
2013-02-08 07:11:00,26.7,23.4,30.33,NE,52,0.0,0.0,87,0.00,,SKC,0.00,VWS V13.01,2013-02-08 13:11:00,
2013-02-08 07:16:00,26.8,23.2,30.33,NE,52,0.0,2.0,86,0.00,,SKC,0.00,VWS V13.01,2013-02-08 13:16:00,
2013-02-08 07:21:00,26.8,23.5,30.33,NE,52,0.0,0.0,87,0.00,,SKC,0.00,VWS V13.01,2013-02-08 13:21:00,
2013-02-08 07:26:00,26.8,23.5,30.33,NE,52,0.0,0.0,87,0.00,,SKC,0.00,VWS V13.01,2013-02-08 13:26:00,
2013-02-08 07:32:00,26.8,23.5,30.33,NE,52,0.0,0.0,87,0.00,,SKC,0.00,VWS V13.01,2013-02-08 13:32:00,
2013-02-08 07:38:00,26.8,23.5,30.33,NE,52,0.0,0.0,87,0.00,,SKC,0.00,VWS V13.01,2013-02-08 13:38:00,
2013-02-08 07:44:00,26.8,23.5,30.33,NE,52,0.0,0.0,87,0.00,,SKC,0.00,VWS V13.01,2013-02-08 13:44:00,
2013-02-08 07:49:00,26.8,23.5,30.33,NE,52,0.0,0.0,87,0.00,,SKC,0.00,VWS V13.01,2013-02-08 13:49:00,
2013-02-08 07:54:00,26.8,23.5,30.32,NE,52,2.0,3.0,87,0.00,,SKC,0.00,VWS V13.01,2013-02-08 13:54:00,
2013-02-08 07:59:00,26.8,23.5,30.33,NE,52,0.0,4.0,87,0.00,,SKC,0.00,VWS V13.01,2013-02-08 13:59:00,
2013-02-08 08:04:00,26.7,23.4,30.33,NE,52,0.0,0.0,87,0.00,,SKC,0.00,VWS V13.01,2013-02-08 14:04:00,
2013-02-08 08:09:00,26.7,23.4,30.33,NE,52,0.0,0.0,87,0.00,,SKC,0.00,VWS V13.01,2013-02-08 14:09:00,
2013-02-08 08:14:00,26.7,23.4,30.33,NE,52,0.0,1.0,87,0.00,,SKC,0.00,VWS V13.01,2013-02-08 14:14:00,
2013-02-08 08:19:00,26.7,23.4,30.34,NE,52,0.0,0.0,87,0.00,,SKC,0.00,VWS V13.01,2013-02-08 14:19:00,
2013-02-08 08:24:00,26.8,23.5,30.34,NE,52,0.0,0.0,87,0.00,,SKC,0.00,VWS V13.01,2013-02-08 14:24:00,
2013-02-08 08:29:00,26.8,23.5,30.33,NE,52,2.0,3.0,87,0.00,,SKC,0.00,VWS V13.01,2013-02-08 14:29:00,
2013-02-08 08:34:00,26.9,23.6,30.34,NE,52,0.0,0.0,87,0.00,,SKC,0.00,VWS V13.01,2013-02-08 14:34:00,
2013-02-08 08:39:00,26.9,23.6,30.34,NE,52,0.0,0.0,87,0.00,,SKC,0.00,VWS V13.01,2013-02-08 14:39:00,
2013-02-08 08:44:00,27.0,23.6,30.34,NE,52,0.0,0.0,87,0.00,,SKC,0.00,VWS V13.01,2013-02-08 14:44:00,
2013-02-08 08:49:00,27.0,23.6,30.34,NE,52,1.0,5.0,87,0.00,,SKC,0.00,VWS V13.01,2013-02-08 14:49:00,
2013-02-08 08:54:00,27.1,23.8,30.34,ENE,64,0.0,1.0,87,0.00,,SKC,0.00,VWS V13.01,2013-02-08 14:54:00,
2013-02-08 08:59:00,27.0,23.6,30.34,East,82,2.0,3.0,87,0.00,,SKC,0.00,VWS V13.01,2013-02-08 14:59:00,
2013-02-08 09:04:00,27.1,23.8,30.34,East,82,0.0,0.0,87,0.00,,SKC,0.00,VWS V13.01,2013-02-08 15:04:00,
2013-02-08 09:09:00,27.0,23.6,30.33,East,82,0.0,0.0,87,0.00,,SKC,0.00,VWS V13.01,2013-02-08 15:09:00,
2013-02-08 09:14:00,27.1,23.8,30.34,East,82,4.0,6.0,87,0.00,,SKC,0.00,VWS V13.01,2013-02-08 15:14:00,
2013-02-08 09:19:00,27.2,23.9,30.34,East,82,0.0,0.0,87,0.00,,SKC,0.00,VWS V13.01,2013-02-08 15:19:00,
2013-02-08 09:24:00,27.3,24.0,30.34,East,82,0.0,0.0,87,0.00,,SKC,0.00,VWS V13.01,2013-02-08 15:24:00,
2013-02-08 09:29:00,27.4,24.0,30.34,East,82,3.0,3.0,87,0.00,,SKC,0.00,VWS V13.01,2013-02-08 15:29:00,
2013-02-08 09:34:00,27.5,24.1,30.34,East,88,0.0,2.0,87,0.00,,SKC,0.00,VWS V13.01,2013-02-08 15:34:00,
2013-02-08 09:39:00,27.6,24.2,30.34,ESE,114,0.0,2.0,87,0.00,,SKC,0.00,VWS V13.01,2013-02-08 15:39:00,
2013-02-08 09:44:00,27.5,24.1,30.34,ESE,113,6.0,7.0,87,0.00,,SKC,0.00,VWS V13.01,2013-02-08 15:44:00,
2013-02-08 09:49:00,27.5,24.1,30.34,ESE,116,1.0,6.0,87,0.00,,SKC,0.00,VWS V13.01,2013-02-08 15:49:00,
2013-02-08 09:54:00,27.5,23.9,30.34,ESE,110,1.0,5.0,86,0.00,,SKC,0.00,VWS V13.01,2013-02-08 15:54:00,
2013-02-08 09:59:00,27.5,23.9,30.34,ESE,110,0.0,5.0,86,0.00,,SKC,0.00,VWS V13.01,2013-02-08 15:59:00,
2013-02-08 10:04:00,27.5,23.9,30.34,East,94,7.0,13.0,86,0.00,,SKC,0.00,VWS V13.01,2013-02-08 16:04:00,
2013-02-08 10:10:00,27.4,23.8,30.34,ESE,105,1.0,7.0,86,0.00,,SKC,0.00,VWS V13.01,2013-02-08 16:10:00,
2013-02-08 10:15:00,27.4,23.8,30.34,ESE,106,6.0,6.0,86,0.00,,SKC,0.00,VWS V13.01,2013-02-08 16:15:00,
2013-02-08 10:20:00,27.3,23.7,30.34,East,96,4.0,5.0,86,0.00,,SKC,0.00,VWS V13.01,2013-02-08 16:20:00,
2013-02-08 10:25:00,27.4,23.8,30.34,East,99,6.0,12.0,86,0.00,,SKC,0.00,VWS V13.01,2013-02-08 16:25:00,
2013-02-08 10:30:00,27.4,23.8,30.34,East,99,2.0,4.0,86,0.00,,SKC,0.00,VWS V13.01,2013-02-08 16:30:00,
2013-02-08 10:35:00,27.6,24.0,30.35,East,100,5.0,6.0,86,0.00,,SKC,0.00,VWS V13.01,2013-02-08 16:35:00,
2013-02-08 10:40:00,27.7,24.1,30.35,East,101,0.0,4.0,86,0.00,,SKC,0.00,VWS V13.01,2013-02-08 16:40:00,
2013-02-08 10:45:00,27.9,24.3,30.35,ESE,118,2.0,8.0,86,0.00,,SKC,0.00,VWS V13.01,2013-02-08 16:45:00,
2013-02-08 10:50:00,28.1,24.5,30.35,SE,129,4.0,6.0,86,0.00,,SKC,0.00,VWS V13.01,2013-02-08 16:50:00,
2013-02-08 10:55:00,28.1,24.2,30.35,SE,139,0.0,4.0,85,0.00,,SKC,0.00,VWS V13.01,2013-02-08 16:55:00,
2013-02-08 11:00:00,28.1,24.2,30.35,SE,140,0.0,0.0,85,0.00,,SKC,0.00,VWS V13.01,2013-02-08 17:00:00,
2013-02-08 11:06:00,28.1,24.2,30.36,SE,132,6.0,11.0,85,0.00,,SKC,0.00,VWS V13.01,2013-02-08 17:06:00,
2013-02-08 11:11:00,28.3,24.4,30.36,SE,135,0.0,0.0,85,0.00,,SKC,0.00,VWS V13.01,2013-02-08 17:11:00,
2013-02-08 11:16:00,28.4,24.5,30.36,SE,134,0.0,0.0,85,0.00,,SKC,0.00,VWS V13.01,2013-02-08 17:16:00,
2013-02-08 11:22:00,28.3,24.1,30.36,ESE,109,0.0,0.0,84,0.00,,SKC,0.00,VWS V13.01,2013-02-08 17:22:00,
2013-02-08 11:28:00,28.5,24.6,30.36,ESE,107,0.0,4.0,85,0.00,,SKC,0.00,VWS V13.01,2013-02-08 17:28:00,
2013-02-08 11:33:00,28.7,24.8,30.35,ESE,112,7.0,8.0,85,0.00,,SKC,0.00,VWS V13.01,2013-02-08 17:33:00,
2013-02-08 11:38:00,28.8,24.6,30.36,ESE,106,5.0,6.0,84,0.00,,SKC,0.00,VWS V13.01,2013-02-08 17:38:00,
2013-02-08 11:43:00,28.9,24.7,30.36,ESE,106,0.0,0.0,84,0.00,,SKC,0.00,VWS V13.01,2013-02-08 17:43:00,
2013-02-08 11:48:00,29.3,25.1,30.36,SE,137,0.0,0.0,84,0.00,,SKC,0.00,VWS V13.01,2013-02-08 17:48:00,
2013-02-08 11:53:00,29.8,25.6,30.36,SE,137,0.0,0.0,84,0.00,,SKC,0.00,VWS V13.01,2013-02-08 17:53:00,
2013-02-08 11:58:00,30.0,25.5,30.36,SE,137,0.0,0.0,83,0.00,,SKC,0.00,VWS V13.01,2013-02-08 17:58:00,
2013-02-08 12:03:00,30.6,26.1,30.36,SE,137,0.0,0.0,83,0.00,,SKC,0.00,VWS V13.01,2013-02-08 18:03:00,
2013-02-08 12:08:00,30.9,26.1,30.35,SE,136,1.0,6.0,82,0.00,,SKC,0.00,VWS V13.01,2013-02-08 18:08:00,
2013-02-08 12:13:00,30.9,25.8,30.35,SE,137,0.0,0.0,81,0.00,,SKC,0.00,VWS V13.01,2013-02-08 18:13:00,
2013-02-08 12:18:00,30.9,25.8,30.35,SE,130,1.0,7.0,81,0.00,,SKC,0.00,VWS V13.01,2013-02-08 18:18:00,
2013-02-08 12:23:00,31.0,25.6,30.36,SSE,151,6.0,6.0,80,0.00,,SKC,0.00,VWS V13.01,2013-02-08 18:23:00,
2013-02-08 12:28:00,31.0,25.6,30.35,SSE,162,0.0,4.0,80,0.00,,SKC,0.00,VWS V13.01,2013-02-08 18:28:00,
2013-02-08 12:33:00,31.2,25.8,30.35,SSE,165,2.0,7.0,80,0.00,,SKC,0.00,VWS V13.01,2013-02-08 18:33:00,
2013-02-08 12:38:00,31.3,25.9,30.35,East,96,1.0,7.0,80,0.00,,SKC,0.00,VWS V13.01,2013-02-08 18:38:00,
2013-02-08 12:44:00,31.4,25.6,30.34,South,178,1.0,4.0,79,0.00,,SKC,0.00,VWS V13.01,2013-02-08 18:44:00,
2013-02-08 12:50:00,31.3,25.6,30.34,South,179,0.0,0.0,79,0.00,,SKC,0.00,VWS V13.01,2013-02-08 18:50:00,
2013-02-08 12:55:00,31.7,26.2,30.33,SE,126,0.0,0.0,80,0.00,,SKC,0.00,VWS V13.01,2013-02-08 18:55:00,
2013-02-08 13:00:00,32.2,26.7,30.33,SE,130,4.0,6.0,80,0.00,,SKC,0.00,VWS V13.01,2013-02-08 19:00:00,
2013-02-08 13:05:00,32.3,26.5,30.33,South,176,0.0,7.0,79,0.00,,SKC,0.00,VWS V13.01,2013-02-08 19:05:00,
2013-02-08 13:10:00,32.4,26.3,30.32,ESE,119,1.0,7.0,78,0.00,,SKC,0.00,VWS V13.01,2013-02-08 19:10:00,
2013-02-08 13:15:00,32.6,26.5,30.32,SSE,158,5.0,7.0,78,0.00,,SKC,0.00,VWS V13.01,2013-02-08 19:15:00,
2013-02-08 13:20:00,32.2,25.8,30.32,East,100,4.0,14.0,77,0.00,,SKC,0.00,VWS V13.01,2013-02-08 19:20:00,
2013-02-08 13:25:00,32.3,26.2,30.32,SSE,159,7.0,7.0,78,0.00,,SKC,0.00,VWS V13.01,2013-02-08 19:25:00,
2013-02-08 13:31:00,33.3,27.5,30.31,NE,38,2.0,8.0,79,0.00,,SKC,0.00,VWS V13.01,2013-02-08 19:31:00,
2013-02-08 13:36:00,34.6,27.8,30.31,East,95,2.0,7.0,76,0.00,,SKC,0.00,VWS V13.01,2013-02-08 19:36:00,
2013-02-08 13:41:00,34.9,27.1,30.30,SSW,195,5.0,5.0,73,0.00,,SKC,0.00,VWS V13.01,2013-02-08 19:41:00,
2013-02-08 13:46:00,34.6,26.9,30.30,East,99,0.0,9.0,73,0.00,,SKC,0.00,VWS V13.01,2013-02-08 19:46:00,
2013-02-08 13:51:00,34.5,26.8,30.30,SSE,151,0.0,10.0,73,0.00,,SKC,0.00,VWS V13.01,2013-02-08 19:51:00,
2013-02-08 13:56:00,34.7,26.6,30.29,SE,141,12.0,16.0,72,0.00,,SKC,0.00,VWS V13.01,2013-02-08 19:56:00,
2013-02-08 14:01:00,35.9,28.4,30.29,South,176,8.0,9.0,74,0.00,,SKC,0.00,VWS V13.01,2013-02-08 20:01:00,
2013-02-08 14:06:00,37.0,28.5,30.29,NW,318,2.0,14.0,71,0.00,,SKC,0.00,VWS V13.01,2013-02-08 20:06:00,
2013-02-08 14:11:00,36.4,26.9,30.28,East,99,4.0,14.0,68,0.00,,SKC,0.00,VWS V13.01,2013-02-08 20:11:00,
2013-02-08 14:16:00,35.5,26.7,30.28,ESE,118,6.0,10.0,70,0.00,,SKC,0.00,VWS V13.01,2013-02-08 20:16:00,
2013-02-08 14:21:00,35.5,27.4,30.28,ESE,123,11.0,12.0,72,0.00,,SKC,0.00,VWS V13.01,2013-02-08 20:21:00,
2013-02-08 14:26:00,35.4,27.3,30.27,SSE,155,6.0,8.0,72,0.00,,SKC,0.00,VWS V13.01,2013-02-08 20:26:00,
2013-02-08 14:31:00,35.2,26.8,30.26,SE,132,0.0,9.0,71,0.00,,SKC,0.00,VWS V13.01,2013-02-08 20:31:00,
2013-02-08 14:36:00,36.0,28.5,30.25,ESE,123,7.0,7.0,74,0.00,,SKC,0.00,VWS V13.01,2013-02-08 20:36:00,
2013-02-08 14:41:00,37.3,28.4,30.25,ESE,106,7.0,9.0,70,0.00,,SKC,0.00,VWS V13.01,2013-02-08 20:41:00,
2013-02-08 14:46:00,38.0,29.1,30.25,East,87,0.0,7.0,70,0.00,,SKC,0.00,VWS V13.01,2013-02-08 20:46:00,
2013-02-08 14:51:00,38.4,28.4,30.25,South,181,1.0,7.0,67,0.00,,SKC,0.00,VWS V13.01,2013-02-08 20:51:00,
2013-02-08 14:56:00,38.4,28.8,30.25,East,87,2.0,8.0,68,0.00,,SKC,0.00,VWS V13.01,2013-02-08 20:56:00,
2013-02-08 15:01:00,37.8,27.8,30.25,South,170,1.0,6.0,67,0.00,,SKC,0.00,VWS V13.01,2013-02-08 21:01:00,
2013-02-08 15:06:00,37.4,28.2,30.25,SSE,164,5.0,15.0,69,0.00,,SKC,0.00,VWS V13.01,2013-02-08 21:06:00,
2013-02-08 15:11:00,37.3,28.4,30.25,ESE,118,0.0,11.0,70,0.00,,SKC,0.00,VWS V13.01,2013-02-08 21:11:00,
2013-02-08 15:16:00,37.4,28.5,30.25,South,174,9.0,11.0,70,0.00,,SKC,0.00,VWS V13.01,2013-02-08 21:16:00,
2013-02-08 15:21:00,37.3,28.1,30.25,South,181,0.0,6.0,69,0.00,,SKC,0.00,VWS V13.01,2013-02-08 21:21:00,
2013-02-08 15:26:00,37.1,27.5,30.25,South,172,4.0,5.0,68,0.00,,SKC,0.00,VWS V13.01,2013-02-08 21:26:00,
2013-02-08 15:31:00,36.4,27.6,30.25,SSE,147,1.0,7.0,70,0.00,,SKC,0.00,VWS V13.01,2013-02-08 21:31:00,
2013-02-08 15:36:00,36.2,27.7,30.25,South,178,0.0,7.0,71,0.00,,SKC,0.00,VWS V13.01,2013-02-08 21:36:00,
2013-02-08 15:41:00,35.8,27.7,30.25,South,171,1.0,7.0,72,0.00,,SKC,0.00,VWS V13.01,2013-02-08 21:41:00,
2013-02-08 15:46:00,36.4,28.6,30.25,SSE,167,0.0,7.0,73,0.00,,SKC,0.00,VWS V13.01,2013-02-08 21:46:00,
2013-02-08 15:51:00,36.8,28.3,30.24,South,174,6.0,8.0,71,0.00,,SKC,0.00,VWS V13.01,2013-02-08 21:51:00,
2013-02-08 15:56:00,37.0,28.5,30.24,South,174,1.0,8.0,71,0.00,,SKC,0.00,VWS V13.01,2013-02-08 21:56:00,
2013-02-08 16:01:00,37.0,28.5,30.24,ENE,59,3.0,9.0,71,0.00,,SKC,0.00,VWS V13.01,2013-02-08 22:01:00,
2013-02-08 16:06:00,36.7,28.2,30.23,South,181,4.0,9.0,71,0.00,,SKC,0.00,VWS V13.01,2013-02-08 22:06:00,
2013-02-08 16:11:00,36.6,28.4,30.23,SSE,168,0.0,4.0,72,0.00,,SKC,0.00,VWS V13.01,2013-02-08 22:11:00,
2013-02-08 16:16:00,36.5,28.4,30.23,SSE,161,0.0,8.0,72,0.00,,SKC,0.00,VWS V13.01,2013-02-08 22:16:00,
2013-02-08 16:21:00,36.3,28.1,30.23,SSE,166,5.0,5.0,72,0.00,,SKC,0.00,VWS V13.01,2013-02-08 22:21:00,
2013-02-08 16:26:00,36.2,28.4,30.23,ESE,110,0.0,0.0,73,0.00,,SKC,0.00,VWS V13.01,2013-02-08 22:26:00,
2013-02-08 16:31:00,36.2,28.4,30.22,SSE,165,0.0,5.0,73,0.00,,SKC,0.00,VWS V13.01,2013-02-08 22:31:00,
2013-02-08 16:36:00,36.1,28.3,30.22,SSE,147,0.0,7.0,73,0.00,,SKC,0.00,VWS V13.01,2013-02-08 22:36:00,
2013-02-08 16:41:00,35.8,28.3,30.22,ESE,118,0.0,0.0,74,0.00,,SKC,0.00,VWS V13.01,2013-02-08 22:41:00,
2013-02-08 16:46:00,35.6,28.1,30.22,SE,124,8.0,12.0,74,0.00,,SKC,0.00,VWS V13.01,2013-02-08 22:46:00,
2013-02-08 16:51:00,34.9,27.5,30.22,ESE,122,0.0,12.0,74,0.00,,SKC,0.00,VWS V13.01,2013-02-08 22:51:00,
2013-02-08 16:56:00,34.5,27.4,30.22,ESE,104,11.0,11.0,75,0.00,,SKC,0.00,VWS V13.01,2013-02-08 22:56:00,
2013-02-08 17:01:00,34.3,27.5,30.22,South,177,6.0,15.0,76,0.00,,SKC,0.00,VWS V13.01,2013-02-08 23:01:00,
2013-02-08 17:06:00,33.9,27.1,30.22,ESE,116,1.0,9.0,76,0.00,,SKC,0.00,VWS V13.01,2013-02-08 23:06:00,
2013-02-08 17:11:00,33.5,27.1,30.22,SSE,147,0.0,9.0,77,0.00,,SKC,0.00,VWS V13.01,2013-02-08 23:11:00,
2013-02-08 17:16:00,33.3,26.9,30.22,SE,139,7.0,10.0,77,0.00,,SKC,0.00,VWS V13.01,2013-02-08 23:16:00,
2013-02-08 17:21:00,33.0,26.9,30.22,East,101,1.0,7.0,78,0.00,,SKC,0.00,VWS V13.01,2013-02-08 23:21:00,
2013-02-08 17:26:00,32.9,27.1,30.22,ESE,118,0.0,6.0,79,0.00,,SKC,0.00,VWS V13.01,2013-02-08 23:26:00,
2013-02-08 17:31:00,32.7,26.9,30.22,ESE,106,2.0,4.0,79,0.00,,SKC,0.00,VWS V13.01,2013-02-08 23:31:00,
2013-02-08 17:36:00,32.5,26.7,30.22,SE,139,2.0,6.0,79,0.00,,SKC,0.00,VWS V13.01,2013-02-08 23:36:00,
2013-02-08 17:41:00,32.3,26.8,30.22,SE,126,1.0,5.0,80,0.00,,SKC,0.00,VWS V13.01,2013-02-08 23:41:00,
2013-02-08 17:46:00,32.1,26.6,30.21,ESE,111,0.0,5.0,80,0.00,,SKC,0.00,VWS V13.01,2013-02-08 23:46:00,
2013-02-08 17:51:00,32.0,26.8,30.22,ESE,103,7.0,7.0,81,0.00,,SKC,0.00,VWS V13.01,2013-02-08 23:51:00,
2013-02-08 17:56:00,31.8,26.6,30.22,ESE,111,0.0,0.0,81,0.00,,SKC,0.00,VWS V13.01,2013-02-08 23:56:00,
2013-02-08 18:01:00,31.6,26.8,30.22,SE,124,4.0,4.0,82,0.00,,SKC,0.00,VWS V13.01,2013-02-09 00:01:00,
2013-02-08 18:06:00,31.4,26.5,30.22,ESE,118,5.0,6.0,82,0.00,,SKC,0.00,VWS V13.01,2013-02-09 00:06:00,
2013-02-08 18:11:00,31.2,26.6,30.21,ESE,117,2.0,5.0,83,0.00,,SKC,0.00,VWS V13.01,2013-02-09 00:11:00,
2013-02-08 18:16:00,31.1,26.5,30.21,ESE,109,5.0,7.0,83,0.00,,SKC,0.00,VWS V13.01,2013-02-09 00:16:00,
2013-02-08 18:21:00,31.0,26.7,30.21,East,88,6.0,13.0,84,0.00,,SKC,0.00,VWS V13.01,2013-02-09 00:21:00,
2013-02-08 18:26:00,30.9,26.6,30.21,ESE,108,4.0,8.0,84,0.00,,SKC,0.00,VWS V13.01,2013-02-09 00:26:00,
2013-02-08 18:31:00,30.8,26.8,30.20,ESE,109,5.0,7.0,85,0.00,,SKC,0.00,VWS V13.01,2013-02-09 00:31:00,
2013-02-08 18:36:00,30.7,26.7,30.21,ESE,104,9.0,12.0,85,0.00,,SKC,0.00,VWS V13.01,2013-02-09 00:36:00,
2013-02-08 18:41:00,30.6,26.6,30.21,ESE,115,6.0,8.0,85,0.00,,SKC,0.00,VWS V13.01,2013-02-09 00:41:00,
2013-02-08 18:46:00,30.6,26.6,30.21,ESE,111,0.0,1.0,85,0.00,,SKC,0.00,VWS V13.01,2013-02-09 00:46:00,
2013-02-08 18:52:00,30.5,26.5,30.21,SE,124,9.0,15.0,85,0.00,,SKC,0.00,VWS V13.01,2013-02-09 00:52:00,
2013-02-08 18:57:00,30.5,26.5,30.21,ESE,107,8.0,13.0,85,0.00,,SKC,0.00,VWS V13.01,2013-02-09 00:57:00,
2013-02-08 19:03:00,30.4,26.4,30.21,ENE,77,0.0,8.0,85,0.00,,SKC,0.00,VWS V13.01,2013-02-09 01:03:00,
2013-02-08 19:08:00,30.3,26.3,30.21,ENE,77,5.0,13.0,85,0.00,,SKC,0.00,VWS V13.01,2013-02-09 01:08:00,
2013-02-08 19:13:00,30.3,26.6,30.21,ESE,102,5.0,11.0,86,0.00,,SKC,0.00,VWS V13.01,2013-02-09 01:13:00,
2013-02-08 19:19:00,30.3,26.6,30.20,ESE,120,5.0,6.0,86,0.00,,SKC,0.00,VWS V13.01,2013-02-09 01:19:00,
2013-02-08 19:24:00,30.2,26.5,30.21,ESE,110,9.0,9.0,86,0.00,,SKC,0.00,VWS V13.01,2013-02-09 01:24:00,
2013-02-08 19:29:00,30.2,26.5,30.20,ESE,104,7.0,8.0,86,0.00,,SKC,0.00,VWS V13.01,2013-02-09 01:29:00,
2013-02-08 19:34:00,30.2,26.5,30.20,East,83,5.0,11.0,86,0.00,,SKC,0.00,VWS V13.01,2013-02-09 01:34:00,
2013-02-08 19:39:00,30.1,26.4,30.20,East,81,1.0,12.0,86,0.00,,SKC,0.00,VWS V13.01,2013-02-09 01:39:00,
2013-02-08 19:44:00,30.2,26.8,30.19,ESE,102,1.0,15.0,87,0.00,,SKC,0.00,VWS V13.01,2013-02-09 01:44:00,
2013-02-08 19:49:00,30.1,26.7,30.19,SSE,162,0.0,7.0,87,0.00,,SKC,0.00,VWS V13.01,2013-02-09 01:49:00,
2013-02-08 19:54:00,30.1,26.7,30.19,SE,140,9.0,11.0,87,0.00,,SKC,0.00,VWS V13.01,2013-02-09 01:54:00,
2013-02-08 19:59:00,30.1,26.7,30.19,SE,141,0.0,9.0,87,0.00,,SKC,0.00,VWS V13.01,2013-02-09 01:59:00,
2013-02-08 20:05:00,30.1,26.7,30.19,East,101,4.0,8.0,87,0.00,,SKC,0.00,VWS V13.01,2013-02-09 02:05:00,
2013-02-08 20:10:00,30.1,26.7,30.19,SE,135,0.0,11.0,87,0.00,,SKC,0.00,VWS V13.01,2013-02-09 02:10:00,
2013-02-08 20:15:00,30.1,26.7,30.19,ESE,106,2.0,8.0,87,0.00,,SKC,0.00,VWS V13.01,2013-02-09 02:15:00,
2013-02-08 20:20:00,30.1,26.7,30.19,SE,129,5.0,9.0,87,0.00,,SKC,0.00,VWS V13.01,2013-02-09 02:20:00,
2013-02-08 20:25:00,30.1,26.7,30.19,ESE,106,6.0,10.0,87,0.00,,SKC,0.00,VWS V13.01,2013-02-09 02:25:00,
2013-02-08 20:31:00,30.0,26.6,30.19,ESE,123,7.0,8.0,87,0.00,,SKC,0.00,VWS V13.01,2013-02-09 02:31:00,
2013-02-08 20:36:00,29.9,26.5,30.18,SE,131,0.0,11.0,87,0.00,,SKC,0.00,VWS V13.01,2013-02-09 02:36:00,
2013-02-08 20:42:00,29.9,26.5,30.18,ESE,108,0.0,12.0,87,0.00,,SKC,0.00,VWS V13.01,2013-02-09 02:42:00,
2013-02-08 20:48:00,29.8,26.4,30.18,East,94,4.0,8.0,87,0.00,,SKC,0.00,VWS V13.01,2013-02-09 02:48:00,
2013-02-08 20:53:00,29.8,26.4,30.18,ESE,114,0.0,10.0,87,0.00,,SKC,0.00,VWS V13.01,2013-02-09 02:53:00,
2013-02-08 20:59:00,29.8,26.4,30.18,SE,129,12.0,14.0,87,0.00,,SKC,0.00,VWS V13.01,2013-02-09 02:59:00,
2013-02-08 21:04:00,29.8,26.4,30.18,ESE,104,2.0,7.0,87,0.00,,SKC,0.00,VWS V13.01,2013-02-09 03:04:00,
2013-02-08 21:10:00,29.8,26.4,30.19,ESE,114,5.0,12.0,87,0.00,,SKC,0.00,VWS V13.01,2013-02-09 03:10:00,
2013-02-08 21:15:00,29.8,26.4,30.18,East,93,5.0,15.0,87,0.00,,SKC,0.00,VWS V13.01,2013-02-09 03:15:00,
2013-02-08 21:20:00,29.8,26.4,30.18,ESE,119,1.0,10.0,87,0.00,,SKC,0.00,VWS V13.01,2013-02-09 03:20:00,
2013-02-08 21:25:00,29.9,26.5,30.17,SE,131,12.0,12.0,87,0.00,,SKC,0.00,VWS V13.01,2013-02-09 03:25:00,
2013-02-08 21:30:00,30.0,26.6,30.17,ESE,108,9.0,15.0,87,0.00,,SKC,0.00,VWS V13.01,2013-02-09 03:30:00,
2013-02-08 21:35:00,30.0,26.6,30.17,ESE,106,8.0,16.0,87,0.00,,SKC,0.00,VWS V13.01,2013-02-09 03:35:00,
2013-02-08 21:40:00,30.0,26.6,30.17,SE,137,13.0,13.0,87,0.00,,SKC,0.00,VWS V13.01,2013-02-09 03:40:00,
2013-02-08 21:45:00,30.0,26.6,30.17,SE,135,6.0,9.0,87,0.00,,SKC,0.00,VWS V13.01,2013-02-09 03:45:00,
2013-02-08 21:51:00,30.0,26.6,30.17,SSE,151,12.0,12.0,87,0.00,,SKC,0.00,VWS V13.01,2013-02-09 03:51:00,
2013-02-08 21:56:00,30.0,26.6,30.17,ESE,110,13.0,16.0,87,0.00,,SKC,0.00,VWS V13.01,2013-02-09 03:56:00,
2013-02-08 22:01:00,30.0,26.6,30.17,SSE,160,6.0,11.0,87,0.00,,SKC,0.00,VWS V13.01,2013-02-09 04:01:00,
2013-02-08 22:06:00,29.9,26.5,30.17,SE,140,6.0,12.0,87,0.00,,SKC,0.00,VWS V13.01,2013-02-09 04:06:00,
2013-02-08 22:11:00,29.9,26.5,30.18,SE,138,8.0,14.0,87,0.00,,SKC,0.00,VWS V13.01,2013-02-09 04:11:00,
2013-02-08 22:16:00,29.8,26.4,30.18,SE,126,7.0,11.0,87,0.00,,SKC,0.00,VWS V13.01,2013-02-09 04:16:00,
2013-02-08 22:21:00,29.8,26.4,30.18,SE,145,2.0,11.0,87,0.00,,SKC,0.00,VWS V13.01,2013-02-09 04:21:00,
2013-02-08 22:26:00,29.7,26.3,30.18,SSE,149,8.0,8.0,87,0.00,,SKC,0.00,VWS V13.01,2013-02-09 04:26:00,
2013-02-08 22:31:00,29.7,26.3,30.18,ESE,110,1.0,7.0,87,0.00,,SKC,0.00,VWS V13.01,2013-02-09 04:31:00,
2013-02-08 22:36:00,29.6,26.2,30.18,SE,144,4.0,9.0,87,0.00,,SKC,0.00,VWS V13.01,2013-02-09 04:36:00,
2013-02-08 22:42:00,29.6,26.2,30.18,SSE,166,1.0,8.0,87,0.00,,SKC,0.00,VWS V13.01,2013-02-09 04:42:00,
2013-02-08 22:47:00,29.6,26.2,30.18,SSE,155,0.0,7.0,87,0.00,,SKC,0.00,VWS V13.01,2013-02-09 04:47:00,
2013-02-08 22:52:00,29.5,26.1,30.18,SSE,161,2.0,11.0,87,0.00,,SKC,0.00,VWS V13.01,2013-02-09 04:52:00,
2013-02-08 22:57:00,29.5,26.4,30.18,South,171,2.0,9.0,88,0.00,,SKC,0.00,VWS V13.01,2013-02-09 04:57:00,
2013-02-08 23:00:00,29.4,26.3,30.18,SE,139,1.0,9.0,88,0.00,,SKC,0.00,VWS V13.01,2013-02-09 05:00:00,
2013-02-08 23:02:00,29.4,26.3,30.18,SE,132,0.0,0.0,88,0.00,,SKC,0.00,VWS V13.01,2013-02-09 05:02:00,
2013-02-08 23:03:00,29.4,26.3,30.18,SE,139,1.0,8.0,88,0.00,,SKC,0.00,VWS V13.01,2013-02-09 05:03:00,
2013-02-08 23:08:00,29.3,26.2,30.18,SSE,147,4.0,9.0,88,0.00,,SKC,0.00,VWS V13.01,2013-02-09 05:08:00,
2013-02-08 23:13:00,29.2,25.8,30.18,SE,144,0.0,4.0,87,0.00,,SKC,0.00,VWS V13.01,2013-02-09 05:13:00,
2013-02-08 23:18:00,29.1,26.0,30.18,SSE,147,0.0,5.0,88,0.00,,SKC,0.00,VWS V13.01,2013-02-09 05:18:00,
2013-02-08 23:23:00,29.1,26.0,30.18,SE,135,0.0,2.0,88,0.00,,SKC,0.00,VWS V13.01,2013-02-09 05:23:00,
2013-02-08 23:28:00,29.0,25.9,30.19,South,176,0.0,7.0,88,0.00,,SKC,0.00,VWS V13.01,2013-02-09 05:28:00,
2013-02-08 23:33:00,29.0,25.9,30.18,East,86,0.0,0.0,88,0.00,,SKC,0.00,VWS V13.01,2013-02-09 05:33:00,
2013-02-08 23:38:00,29.1,26.0,30.18,SE,137,8.0,11.0,88,0.00,,SKC,0.00,VWS V13.01,2013-02-09 05:38:00,
2013-02-08 23:43:00,29.2,26.1,30.18,SE,130,2.0,7.0,88,0.00,,SKC,0.00,VWS V13.01,2013-02-09 05:43:00,
2013-02-08 23:48:00,29.3,26.5,30.19,SSE,156,0.0,4.0,89,0.00,,SKC,0.00,VWS V13.01,2013-02-09 05:48:00,
2013-02-08 23:53:00,29.4,26.6,30.18,SE,137,1.0,8.0,89,0.00,,SKC,0.00,VWS V13.01,2013-02-09 05:53:00,
2013-02-08 23:58:00,29.6,26.8,30.18,SSE,158,2.0,5.0,89,0.00,,SKC,0.00,VWS V13.01,2013-02-09 05:58:00,